Regional Weather Roundup
Issued by NWS

Home | Current Version | Previous Version | Text Only | Print | Product List | Glossary On
Versions: 1 2 3 4 5 6 7 8 9 10 11 12 13 14 15 16 17 18 19 20 21 22 23 24 25 26 27 28 29 30 31 32 33 34 35 36 37 38 39 40 41 42 43 44 45 46 47 48 49 50
000
ASUS43 KBIS 021410
RWRND

NORTH DAKOTA REGIONAL WEATHER ROUNDUP
NATIONAL WEATHER SERVICE BISMARCK ND
900 AM CDT SUN AUG 02 2015

NOTE: "FAIR" INDICATES FEW OR NO CLOUDS BELOW 12,000 FEET WITH NO
SIGNIFICANT WEATHER AND/OR OBSTRUCTIONS TO VISIBILITY.


NDZ001>003-009>011-017-021500-
NORTHWEST NORTH DAKOTA

CITY           SKY/WX    TMP DP  RH WIND       PRES   REMARKS
WILLISTON      SUNNY     67  54  63 N10       29.99R
MINOT          SUNNY     65  55  70 NW14G21   29.91R
MINOT AFB      SUNNY     67  57  72 NW14      29.91R
$$

NDZ018>021-031>035-040>046-021500-
SOUTHWEST NORTH DAKOTA

CITY           SKY/WX    TMP DP  RH WIND       PRES   REMARKS
BISMARCK       SUNNY     68  57  68 NW10      29.91R
DICKINSON      SUNNY     62  55  77 NW7       29.98R
GARRISON         N/A     65  56  72 N8        29.92R
HETTINGER ARPT SUNNY     64  55  72 N8        30.00R
$$

NDZ004>008-012>016-024-026-027-054-021500-
NORTHEAST NORTH DAKOTA

CITY           SKY/WX    TMP DP  RH WIND       PRES   REMARKS
GRAND FORKS    MOSUNNY   67  59  75 NW13      29.77R
GRND FRKS AFB  MOSUNNY   66  58  75 N13       29.78R
DEVILS LAKE    MOSUNNY   66  52  59 N15       29.84R
$$

NDZ022-023-025-028>030-036>039-047>053-021500-
SOUTHEAST NORTH DAKOTA

CITY           SKY/WX    TMP DP  RH WIND       PRES   REMARKS
FARGO          MOSUNNY   68  60  75 N14       29.76R
JAMESTOWN      SUNNY     66  59  78 N14       29.83R
$$



USA.gov is the U.S. government's official web portal to all federal, state and local government web resources and services.